This is the latest recevied weather packets stored in our database for station/object SR6WVX. If no packets are shown the sender has not sent any weather packets the latest 10 day(s).
| Time | Temp. | Humidity | Pressure | Rain* | Wind** | Luminosity | Snow |
|---|---|---|---|---|---|---|---|
| 1777700891 | 19.44° C | 52% | 1020.1 hPa | 0 mm | - | - | - |
| 1777700591 | 18.89° C | 54% | 1020.3 hPa | 0 mm | - | - | - |
| 1777700290 | 18.33° C | 57% | 1020 hPa | 0 mm | - | - | - |
| 1777699990 | 17.22° C | 59% | 1020.2 hPa | 0 mm | - | - | - |
| 1777699690 | 16.67° C | 63% | 1020 hPa | 0 mm | - | - | - |
| 1777699389 | 15.56° C | 67% | 1020.2 hPa | 0 mm | - | - | - |
| 1777699089 | 14.44° C | 70% | 1020.1 hPa | 0 mm | - | - | - |
| 1777698789 | 12.78° C | 73% | 1020.3 hPa | 0 mm | - | - | - |
| 1777698489 | 12.22° C | 76% | 1020.1 hPa | 0 mm | - | - | - |
| 1777698188 | 11.67° C | 78% | 1020.2 hPa | 0 mm | - | - | - |
| 1777697888 | 11.67° C | 82% | 1020.2 hPa | 0 mm | - | - | - |
| 1777697588 | 10° C | 88% | 1020.1 hPa | 0 mm | - | - | - |
| 1777697288 | 9.44° C | 90% | 1020.1 hPa | 0 mm | - | - | - |
| 1777696987 | 8.89° C | 91% | 1020.1 hPa | 0 mm | - | - | - |
| 1777696687 | 7.78° C | 91% | 1020.3 hPa | 0 mm | - | - | - |
| 1777696387 | 6.67° C | 92% | 1019.9 hPa | 0 mm | - | - | - |
| 1777696087 | 6.67° C | 92% | 1020.1 hPa | 0 mm | - | - | - |
| 1777695786 | 5° C | 91% | 1020.2 hPa | 0 mm | - | - | - |
| 1777695486 | 3.89° C | 91% | 1020.1 hPa | 0 mm | - | - | - |
| 1777695186 | 2.78° C | 89% | 1020.2 hPa | 0 mm | - | - | - |
| 1777694885 | 2.22° C | 89% | 1020.1 hPa | 0 mm | - | - | - |
| 1777694585 | 2.22° C | 89% | 1020.2 hPa | 0 mm | - | - | - |
| 1777694285 | 2.22° C | 89% | 1020.1 hPa | 0 mm | - | - | - |
| 1777693985 | 1.67° C | 88% | 1020 hPa | 0 mm | - | - | - |
| 1777693684 | 1.67° C | 88% | 1020 hPa | 0 mm | - | - | - |
* Rain latest hour (hover to see other rain measurements)
** Current wind speed in m/s (hover to see current wind gust speed)